DW2789 Weather Reports


Display with metric or nautical units.
time (UTC)temp
F
wind
direction
speed
MPH
gust
MPH
rain 1hr
in
rain 24hr
in
rain mn
in
humidity
%
barometer
mb
20201023002934 48 283 0.0 0.0 0.00 0.00 0.00 45 1026.9
20201023001935 48 283 0.0 0.0 0.00 0.00 0.00 47 1027.0
20201023000938 49 283 0.0 0.0 0.00 0.00 0.00 43 1027.1
20201022235929 49 283 0.0 0.0 0.00 0.00 0.00 44 1027.2
20201022234932 49 283 0.0 0.0 0.00 0.00 0.00 44 1027.1
20201022233936 50 283 0.0 0.0 0.00 0.00 0.00 42 1027.1
20201022232943 50 283 0.0 6.0 0.00 0.00 0.00 43 1027.1
20201022231928 50 283 0.0 5.0 0.00 0.00 0.00 42 1027.2
20201022230931 51 283 0.0 0.0 0.00 0.00 0.00 43 1027.1
20201022225937 51 283 0.0 4.0 0.00 0.00 0.00 43 1027.1
20201022224943 51 283 1.0 7.0 0.00 0.00 0.00 42 1026.9
20201022223929 52 283 0.0 0.0 0.00 0.00 0.00 43 1027.0
20201022222941 51 283 0.0 0.0 0.00 0.00 0.00 45 1027.0
20201022221936 50 283 0.0 4.0 0.00 0.00 0.00 46 1027.1
20201022220939 50 283 0.0 0.0 0.00 0.00 0.00 48 1027.1
20201022215927 50 283 0.0 0.0 0.00 0.00 0.00 48 1027.2
20201022214931 50 283 0.0 6.0 0.00 0.02 0.00 50 1027.2
20201022213936 50 283 0.0 5.0 0.00 0.02 0.00 51 1027.2
20201022212939 50 283 0.0 6.0 0.00 0.02 0.00 51 1027.2
20201022211929 49 283 0.0 4.0 0.00 0.02 0.00 53 1027.3
20201022210931 49 283 0.0 0.0 0.00 0.02 0.00 51 1027.4
20201022205934 49 283 2.0 6.0 0.00 0.02 0.00 52 1027.4
20201022204938 48 283 0.0 7.0 0.00 0.02 0.00 55 1027.4
20201022203944 48 283 0.0 8.0 0.00 0.02 0.00 56 1027.5
20201022202927 48 283 0.0 0.0 0.00 0.02 0.00 58 1027.6
20201022201932 48 283 1.0 5.0 0.00 0.02 0.00 58 1027.7
20201022200936 47 283 0.0 3.0 0.00 0.02 0.00 57 1027.7
20201022195928 47 283 0.0 7.0 0.00 0.02 0.00 58 1027.7
20201022194933 47 283 1.0 7.0 0.00 0.02 0.00 58 1027.7
20201022193936 47 283 1.0 6.0 0.00 0.02 0.00 59 1027.8
20201022192943 47 283 2.0 11.0 0.00 0.02 0.00 60 1027.8
20201022191928 47 259 2.0 9.0 0.00 0.02 0.00 60 1027.9
20201022190934 47 256 2.0 8.0 0.00 0.02 0.00 59 1028.0
20201022185937 46 256 4.0 10.0 0.00 0.02 0.00 58 1028.0
20201022184938 46 257 2.0 11.0 0.00 0.02 0.00 60 1028.1
20201022183930 46 257 8.0 12.0 0.00 0.02 0.00 58 1028.0
20201022182938 45 261 4.0 14.0 0.00 0.02 0.00 60 1028.0
20201022182408 45 252 3.0 12.0 0.00 0.02 0.00 64 1027.9
20201022180941 45 259 1.0 13.0 0.00 0.02 0.00 65 1027.8
20201022175928 45 263 6.0 14.0 0.00 0.02 0.00 66 1027.7
20201022174932 44 252 5.0 11.0 0.00 0.02 0.00 67 1027.6
20201022173936 44 248 6.0 11.0 0.00 0.02 0.00 67 1027.6
20201022172939 44 238 3.0 11.0 0.00 0.02 0.00 68 1027.4
20201022171946 44 229 6.0 11.0 0.00 0.02 0.00 64 1027.5
20201022170934 44 209 5.0 10.0 0.00 0.02 0.00 66 1027.4
20201022165933 44 152 0.0 0.0 0.00 0.02 0.00 70 1027.4
20201022164945 43 152 0.0 0.0 0.00 0.02 0.00 75 1027.3
20201022163945 42 152 0.0 0.0 0.00 0.02 0.00 80 1027.2
20201022162946 41 153 0.0 0.0 0.00 0.02 0.00 83 1027.1
20201022161932 39 153 0.0 0.0 0.00 0.02 0.00 88 1027.0
20201022160931 37 153 0.0 0.0 0.00 0.02 0.00 88 1026.9
20201022155941 36 153 0.0 0.0 0.00 0.02 0.00 89 1026.9
20201022154926 35 153 0.0 0.0 0.00 0.02 0.00 89 1026.8
20201022153927 34 153 0.0 0.0 0.00 0.02 0.00 90 1026.8
20201022152931 33 152 0.0 0.0 0.00 0.02 0.00 91 1026.5
20201022151940 32 152 0.0 0.0 0.00 0.02 0.00 90 1026.4
20201022150942 32 152 0.0 0.0 0.00 0.02 0.00 90 1026.1
20201022145943 32 152 0.0 0.0 0.00 0.02 0.00 89 1025.9
20201022144946 31 152 0.0 0.0 0.00 0.02 0.00 89 1025.7
20201022143934 31 152 0.0 0.0 0.00 0.02 0.00 88 1025.7
20201022142943 31 152 0.0 0.0 0.00 0.02 0.00 87 1025.7
20201022141946 32 152 0.0 0.0 0.00 0.02 0.00 87 1025.6
20201022140930 32 152 0.0 0.0 0.00 0.02 0.00 86 1025.6
20201022140058 32 152 0.0 0.0 0.00 0.02 0.00 87 1025.6
20201022135223 33 153 0.0 0.0 0.00 0.02 0.00 87 1025.6
20201022133952 33 152 0.0 0.0 0.00 0.02 0.00 88 1025.6
20201022132929 33 152 0.0 0.0 0.00 0.02 0.00 87 1025.4
20201022131941 33 153 0.0 0.0 0.00 0.02 0.00 86 1025.2
20201022130940 33 152 0.0 0.0 0.00 0.02 0.00 86 1025.2
20201022125947 33 152 0.0 0.0 0.00 0.02 0.00 86 1025.2
20201022124929 34 152 0.0 0.0 0.00 0.02 0.00 85 1025.1
20201022123944 34 152 0.0 0.0 0.00 0.02 0.00 84 1024.9
20201022122942 35 152 0.0 0.0 0.00 0.02 0.00 83 1024.9
20201022121945 35 152 0.0 0.0 0.00 0.02 0.00 83 1024.8
20201022120931 36 152 0.0 0.0 0.00 0.02 0.00 83 1024.8
20201022115937 36 152 0.0 0.0 0.00 0.02 0.00 83 1024.6
20201022114939 37 152 0.0 0.0 0.00 0.02 0.00 82 1024.5
20201022113946 37 152 0.0 0.0 0.00 0.02 0.00 82 1024.3
20201022112946 38 152 0.0 0.0 0.00 0.02 0.00 81 1024.2
20201022111938 38 152 2.0 5.0 0.00 0.02 0.00 80 1024.1
20201022110937 39 152 0.0 5.0 0.00 0.02 0.00 79 1023.9
20201022105945 39 152 0.0 5.0 0.00 0.02 0.00 79 1023.8
20201022104946 39 153 0.0 6.0 0.00 0.02 0.00 79 1023.8
20201022103933 39 153 5.0 7.0 0.00 0.02 0.00 80 1023.6
20201022102944 39 152 4.0 7.0 0.00 0.02 0.00 81 1023.6
20201022101939 38 152 1.0 6.0 0.00 0.02 0.00 83 1023.5
20201022100945 38 152 5.0 8.0 0.00 0.02 0.00 84 1023.4
20201022095935 37 152 0.0 0.0 0.00 0.02 0.00 86 1023.3
20201022094936 37 152 0.0 0.0 0.00 0.02 0.00 86 1023.3
20201022093940 36 152 0.0 0.0 0.00 0.02 0.00 87 1023.3
20201022092928 36 152 0.0 0.0 0.00 0.02 0.00 87 1023.1
20201022091936 36 152 0.0 0.0 0.00 0.02 0.00 86 1023.1
20201022090940 36 152 0.0 0.0 0.00 0.02 0.00 87 1022.9
20201022085950 36 152 0.0 0.0 0.00 0.02 0.00 87 1022.9
20201022084930 36 152 0.0 0.0 0.00 0.02 0.00 87 1022.8
20201022083938 35 152 0.0 0.0 0.00 0.02 0.00 87 1022.7
20201022082940 35 152 0.0 0.0 0.00 0.02 0.00 87 1022.6
20201022081948 35 152 0.0 4.0 0.00 0.02 0.00 87 1022.6
20201022080929 35 152 0.0 3.0 0.00 0.02 0.00 86 1022.5
20201022075942 35 152 0.0 0.0 0.00 0.02 0.00 85 1022.3
20201022074949 36 152 0.0 2.0 0.00 0.02 0.00 85 1022.4
20201022073931 36 152 0.0 0.0 0.00 0.02 0.00 84 1022.3
20201022072932 36 152 0.0 0.0 0.00 0.02 0.00 85 1022.2
20201022071955 36 152 3.0 6.0 0.00 0.02 0.00 85 1022.2
20201022070942 36 157 0.0 6.0 0.00 0.02 0.00 85 1022.0
20201022065944 36 161 0.0 0.0 0.00 0.02 0.00 83 1021.9
20201022064926 36 161 0.0 0.0 0.00 0.02 0.02 83 1021.7
20201022063933 37 161 0.0 0.0 0.00 0.02 0.02 83 1021.7
20201022062938 37 161 0.0 0.0 0.00 0.02 0.02 82 1021.7
20201022061940 37 162 0.0 0.0 0.00 0.02 0.02 81 1021.6
20201022060948 38 162 0.0 0.0 0.00 0.02 0.02 81 1021.5
20201022055932 38 162 0.0 0.0 0.00 0.02 0.02 80 1021.4
20201022054940 39 162 0.0 0.0 0.00 0.02 0.02 79 1021.3
20201022053941 39 162 0.0 0.0 0.00 0.02 0.02 79 1021.2
20201022052927 40 162 0.0 0.0 0.00 0.02 0.02 77 1021.2
20201022051938 41 161 0.0 0.0 0.00 0.02 0.02 77 1021.1
20201022050940 42 162 0.0 0.0 0.00 0.02 0.02 76 1021.0
20201022045943 43 189 0.0 7.0 0.00 0.02 0.02 74 1020.8
20201022044926 43 190 8.0 12.0 0.00 0.02 0.02 73 1020.6
20201022043941 43 194 10.0 15.0 0.00 0.02 0.02 73 1020.5
20201022042946 43 200 8.0 14.0 0.00 0.02 0.02 73 1020.4
20201022041957 44 215 7.0 14.0 0.00 0.02 0.02 73 1020.3
20201022040928 44 187 4.0 13.0 0.00 0.02 0.02 72 1020.2
20201022035939 44 186 8.0 12.0 0.00 0.02 0.02 73 1020.2
20201022034942 44 190 8.0 12.0 0.00 0.02 0.02 72 1020.1
20201022033927 43 161 0.0 9.0 0.00 0.02 0.02 70 1020.1
20201022032938 43 161 5.0 11.0 0.00 0.02 0.02 71 1020.0
20201022031948 43 155 6.0 11.0 0.00 0.02 0.02 72 1019.8
20201022030930 42 149 2.0 8.0 0.00 0.02 0.02 75 1019.9
20201022025936 43 146 0.0 0.0 0.00 0.02 0.02 78 1019.7
20201022024941 43 146 0.0 0.0 0.00 0.02 0.02 78 1019.6
20201022023928 43 146 0.0 0.0 0.00 0.02 0.02 76 1019.7
20201022022932 44 146 0.0 0.0 0.00 0.02 0.02 74 1019.5
20201022021936 44 145 0.0 0.0 0.00 0.02 0.02 70 1019.4
20201022020937 45 145 2.0 9.0 0.00 0.02 0.02 69 1019.3
20201022015929 45 139 4.0 10.0 0.00 0.02 0.02 68 1019.1
20201022014932 45 137 4.0 10.0 0.00 0.02 0.02 68 1019.2
20201022013934 44 107 5.0 9.0 0.00 0.02 0.02 71 1019.1
20201022012938 44 34 0.0 0.0 0.00 0.02 0.02 75 1019.1
20201022011950 44 34 0.0 0.0 0.00 0.02 0.02 77 1019.0
20201022010929 45 34 0.0 0.0 0.00 0.02 0.02 76 1019.0
20201022005933 45 34 0.0 0.0 0.00 0.02 0.02 76 1018.8
20201022004937 45 34 0.0 0.0 0.00 0.02 0.02 76 1018.7
20201022003947 46 34 0.0 0.0 0.00 0.02 0.02 75 1018.6